[[{"header":{"parameterUnit":"m.s-1","parameterCategory":1,"la1":30.2991,"la2":30.254,"lo1":-89.0895,"lo2":-89.0444,"dy":0.0017,"dx":0.0017,"nx":28,"ny":28,"refTime":"2024-02-19T03:00:00:Z","depth":0,"parameterNumber":2,"parameterNumberName":"U-component_of_WINDS"},"data":[0,0,0,0,0,0,0,0,0,0,0,0,0,0,0,0,0,0,0,0,0,0,0,0,0,0,0,0,0,0,0,0,0,0,0,0,0,0,0,0,0,0,0,0,0,0,0,0,0,0,0,0,0,0,0,0,0,0,0.2221,0.2221,0,0.2182,0.2181,0.2181,0.2201,0.2202,0.2204,0.2205,0.216,0.2158,0.2156,0,0,0,0,0,0,0,0,0,0,0,0,0,0.2313,0.2311,0.2222,0.2221,0.2221,0.2182,0.2181,0.2181,0.2201,0.2202,0.2204,0.2205,0.2161,0.2159,0.2156,0,0,0,0,0,0,0,0,0,0,0,0,0,0.2273,0.2311,0.2222,0.2226,0.2226,0.2182,0.2181,0.218,0.2201,0.2203,0.2204,0.2206,0.2162,0.2159,0.2156,0.2103,0,0,0.2146,0.2144,0,0,0,0,0,0,0,0,0.2275,0.227,0.2226,0.2226,0.2226,0.2198,0.2197,0.2154,0.2201,0.221,0.2205,0.2206,0.2171,0.2167,0.2156,0.2101,0.2099,0.2145,0.2143,0.2142,0.2141,0,0,0,0,0,0,0,0.2278,0.2272,0.2206,0.2225,0.2225,0.2229,0.2226,0.2189,0.2182,0.221,0.2211,0.2206,0.2172,0.2159,0.2155,0.2099,0.2145,0.2142,0.214,0.2139,0.1998,0.1996,0,0,0,0,0,0,0.2281,0.2274,0.2207,0.2204,0.2255,0.2227,0.2222,0.2205,0.2183,0.2181,0.2205,0.2207,0.2164,0.2159,0.2154,0.209,0.2142,0.2139,0.2137,0.2,0.1997,0.1996,0,0,0,0,0,0,0.2283,0.2275,0.2209,0.224,0.2231,0.2223,0.2204,0.2204,0.2192,0.2179,0.2178,0.2194,0.2165,0.2159,0.2116,0.2089,0.2137,0.2134,0.2002,0.1999,0.1996,0.1963,0,0,0,0,0,0,0.2286,0.2276,0.2256,0.2239,0.223,0.2171,0.2203,0.2202,0.2186,0.2189,0.2168,0.2167,0.2166,0.2121,0.2113,0.2085,0.2132,0.2004,0.2001,0.1997,0.1966,0.196,0.1954,0,0,0,0,0,0.2289,0.2248,0.2255,0.2247,0.2205,0.217,0.2165,0.2166,0.2184,0.2164,0.2156,0.2167,0.2094,0.2116,0.2107,0.2079,0.2006,0.2002,0.1998,0.1969,0.1961,0.1954,0,0,0,0,0,0,0.226,0.2245,0.2253,0.2206,0.2189,0.2174,0.2148,0.2157,0.2134,0.2137,0.2139,0.2134,0.2089,0.208,0.2105,0.2027,0.2052,0.2046,0.2034,0.2026,0.202,0.2022,0.2129,0,0,0,0,0,0.2249,0.2222,0.2211,0.2169,0.2161,0.2156,0.2141,0.2143,0.2126,0.2118,0.2107,0.2089,0.2062,0.2044,0.2018,0.1966,0.1961,0.1942,0.1936,0.1931,0.1925,0.1896,0.1887,0.1982,0.1982,0.1982,0,0,0.2224,0.2213,0.2196,0.2164,0.2151,0.2122,0.215,0.2119,0.2097,0.2113,0.2072,0.2064,0.2043,0.1995,0.1974,0.1986,0.1898,0.1926,0.1922,0.1918,0.1891,0.1882,0.1874,0.198,0.198,0.198,0,0,0.2164,0.2154,0.2118,0.2105,0.2086,0.2083,0.2075,0.2058,0.2054,0.2013,0.2024,0.1999,0.1952,0.1937,0.1923,0.1859,0.1867,0.185,0.1816,0.1788,0.178,0.1773,0.1749,0.174,0.1845,0.1845,0.1845,0,0.2135,0.2094,0.2098,0.2066,0.2051,0.2066,0.2029,0.2017,0.199,0.1979,0.1994,0.1936,0.1923,0.1872,0.1856,0.1845,0.1834,0.1852,0.1781,0.1774,0.1768,0.1745,0.1736,0.1843,0.1843,0.1843,0.1843,0,0.2059,0.203,0.2003,0.1978,0.196,0.1926,0.1924,0.1906,0.1911,0.1906,0.1864,0.185,0.1821,0.181,0.1813,0.1758,0.1767,0.1781,0.1807,0.1757,0.1735,0.1726,0.184,0.1841,0.1841,0.1842,0,0,0.1977,0.1956,0.1946,0.1935,0.1916,0.1893,0.186,0.1833,0.1816,0.1798,0.1769,0.173,0.1743,0.1728,0.173,0.1706,0.1654,0.1723,0.1723,0.1709,0.1591,0.1579,0.1569,0.1661,0.1659,0.1658,0.1592,0,0.1915,0.1857,0.186,0.1805,0.1778,0.1793,0.1763,0.1748,0.1743,0.1719,0.1713,0.1685,0.1706,0.1696,0.1673,0.1665,0.163,0.167,0.1632,0.1631,0.1635,0.1557,0.1544,0.1483,0.1584,0.1583,0.1582,0,0.1834,0.1813,0.1756,0.1741,0.1729,0.1703,0.1679,0.1656,0.1639,0.1637,0.162,0.1627,0.1592,0.162,0.1572,0.1599,0.1584,0.1578,0.1576,0.157,0.1602,0.1548,0.1463,0.1453,0.1568,0.1569,0.157,0,0.1778,0.1737,0.1697,0.1687,0.1669,0.165,0.1641,0.1626,0.161,0.1589,0.1578,0.1553,0.1538,0.1518,0.1518,0.1539,0.1468,0.1497,0.1464,0.1464,0.1447,0.1447,0.1356,0.1441,0.1441,0.1441,0.1441,0,0.1707,0.167,0.1671,0.1646,0.1606,0.1611,0.1571,0.1564,0.1551,0.1524,0.1536,0.151,0.1512,0.1486,0.1486,0.1445,0.1439,0.1435,0.1435,0.1433,0.1433,0.1422,0.1425,0.1438,0.1439,0.1439,0.144,0,0.1637,0.1636,0.1593,0.1581,0.1577,0.1547,0.1536,0.1512,0.1509,0.1475,0.1468,0.1462,0.1433,0.1431,0.1397,0.1396,0.1346,0.1352,0.1352,0.1352,0.1319,0.1322,0.1216,0.1201,0.1297,0.1296,0.1295,0,0.159,0.1563,0.1547,0.1531,0.1521,0.1495,0.1479,0.1483,0.1465,0.1444,0.1422,0.1394,0.1371,0.1323,0.1316,0.129,0.1293,0.1258,0.1289,0.1288,0.1291,0.1291,0.1288,0.1251,0.125,0.1249,0.1249,0,0.1507,0.1508,0.1485,0.1461,0.1442,0.1424,0.1406,0.1392,0.1394,0.1374,0.1344,0.1327,0.1292,0.1264,0.1238,0.1229,0.1238,0.124,0.123,0.1227,0.1227,0.1225,0.1333,0.1241,0.1242,0.1242,0.1243,0.1243,0.1446,0.1422,0.1407,0.1381,0.1369,0.1353,0.133,0.1324,0.13,0.1273,0.1277,0.1243,0.1227,0.1194,0.1183,0.1156,0.1168,0.1155,0.1151,0.1148,0.1143,0.1233,0.1152,0.1152,0.1152,0.1153,0.1153,0,0.1361,0.1353,0.1329,0.1305,0.1284,0.1298,0.1279,0.1261,0.1232,0.1216,0.1194,0.116,0.1133,0.1124,0.1097,0.1077,0.1081,0.107,0.107,0.1068,0.1135,0.1145,0.1068,0.1068,0.1068,0.1068,0.1068,0.1068,0.1315,0.1275,0.1275,0.1229,0.1221,0.1189,0.1177,0.1162,0.115,0.1112,0.1089,0.1084,0.1071,0.1044,0.1019,0.1017,0.1006,0.0992,0.0992,0.1055,0.1063,0.1071,0.108,0.0991,0.099,0.0927,0.0926,0.0926]},{"header":{"parameterUnit":"m.s-1","parameterCategory":1,"la1":30.2991,"la2":30.254,"lo1":-89.0895,"lo2":-89.0444,"dy":0.0017,"dx":0.0017,"nx":28,"ny":28,"refTime":"2024-02-19T03:00:00:Z","depth":0,"parameterNumber":3,"parameterNumberName":"V-component_of_WINDS"},"data":[0,0,0,0,0,0,0,0,0,0,0,0,0,0,0,0,0,0,0,0,0,0,0,0,0,0,0,0,0,0,0,0,0,0,0,0,0,0,0,0,0,0,0,0,0,0,0,0,0,0,0,0,0,0,0,0,0,0,-4.0102,-4.0104,0,-4.0248,-4.025,-4.0251,-4.0194,-4.019,-4.0187,-4.0184,-4.033,-4.0337,-4.0344,0,0,0,0,0,0,0,0,0,0,0,0,0,-3.977,-3.9777,-4.0102,-4.0104,-4.0106,-4.0248,-4.025,-4.0252,-4.0194,-4.019,-4.0186,-4.0182,-4.0327,-4.0336,-4.0344,0,0,0,0,0,0,0,0,0,0,0,0,0,-3.9915,-3.9779,-4.0102,-4.0094,-4.0095,-4.0247,-4.025,-4.0252,-4.0195,-4.019,-4.0185,-4.018,-4.0325,-4.0335,-4.0345,-4.0513,0,0,-4.0378,-4.0382,0,0,0,0,0,0,0,0,-3.9907,-3.9927,-4.0093,-4.0095,-4.0096,-4.0198,-4.0186,-4.034,-4.0196,-4.0157,-4.0184,-4.0178,-4.029,-4.0303,-4.0341,-4.052,-4.0526,-4.0379,-4.0385,-4.039,-4.0393,0,0,0,0,0,0,0,-3.9897,-3.9921,-4.016,-4.0096,-4.0098,-4.0082,-4.0097,-4.0215,-4.025,-4.016,-4.0156,-4.0174,-4.0289,-4.0331,-4.0344,-4.0528,-4.0378,-4.0388,-4.0394,-4.0399,-4.0852,-4.0857,0,0,0,0,0,0,-3.9887,-3.9913,-4.0155,-4.0164,-3.9987,-4.0093,-4.0109,-4.017,-4.0249,-4.0256,-4.0179,-4.0171,-4.0316,-4.0332,-4.0349,-4.0551,-4.039,-4.04,-4.0406,-4.0846,-4.0853,-4.0859,0,0,0,0,0,0,-3.988,-3.9909,-4.0149,-4.0038,-4.0067,-4.0104,-4.0172,-4.0176,-4.0217,-4.0263,-4.0268,-4.0215,-4.0312,-4.0334,-4.0473,-4.0556,-4.0404,-4.0414,-4.084,-4.0848,-4.0856,-4.0957,0,0,0,0,0,0,-3.9871,-3.9907,-3.9972,-4.0039,-4.0073,-4.0272,-4.0178,-4.0182,-4.0236,-4.0228,-4.0299,-4.0305,-4.031,-4.0458,-4.0484,-4.0567,-4.0422,-4.0832,-4.0843,-4.0854,-4.0946,-4.0967,-4.0986,0,0,0,0,0,-3.9859,-3.9993,-3.9975,-4.0005,-4.0155,-4.0277,-4.0296,-4.0299,-4.0243,-4.0308,-4.0337,-4.0303,-4.0542,-4.0472,-4.0501,-4.0589,-4.0827,-4.084,-4.0853,-4.0937,-4.0963,-4.0985,0,0,0,0,0,0,-3.9933,-4.0002,-3.9983,-4.0143,-4.0205,-4.0267,-4.0349,-4.0327,-4.0405,-4.0394,-4.0393,-4.041,-4.0553,-4.0585,-4.0506,-4.0756,-4.0676,-4.0695,-4.073,-4.0756,-4.0775,-4.0765,-4.0431,0,0,0,0,0,-3.9968,-4.0063,-4.0117,-4.0253,-4.0285,-4.0312,-4.0365,-4.0363,-4.0426,-4.0451,-4.049,-4.0552,-4.0641,-4.07,-4.0784,-4.095,-4.0965,-4.1025,-4.1044,-4.1061,-4.1077,-4.1168,-4.1196,-4.0901,-4.0901,-4.0901,0,0,-4.0042,-4.0091,-4.015,-4.0269,-4.0317,-4.0414,-4.0334,-4.044,-4.0511,-4.0467,-4.0601,-4.0632,-4.0701,-4.0854,-4.0923,-4.0885,-4.1162,-4.1077,-4.1089,-4.1098,-4.1184,-4.1212,-4.1237,-4.091,-4.0908,-4.0907,0,0,-4.0225,-4.0271,-4.039,-4.044,-4.0513,-4.053,-4.0559,-4.0625,-4.0644,-4.0779,-4.0748,-4.0832,-4.0985,-4.1036,-4.1082,-4.1285,-4.1257,-4.1312,-4.1416,-4.1505,-4.1528,-4.1548,-4.1622,-4.1648,-4.1329,-4.1329,-4.1329,0,-4.0306,-4.0452,-4.0454,-4.0563,-4.0616,-4.0582,-4.0702,-4.0749,-4.0846,-4.0883,-4.0838,-4.1031,-4.1074,-4.124,-4.1289,-4.1327,-4.136,-4.1305,-4.1525,-4.1545,-4.1564,-4.1634,-4.1662,-4.1335,-4.1334,-4.1334,-4.1333,0,-4.0549,-4.0651,-4.0738,-4.0834,-4.0897,-4.1011,-4.1029,-4.1092,-4.1084,-4.1106,-4.1244,-4.1295,-4.139,-4.1428,-4.1421,-4.1593,-4.1567,-4.1524,-4.1443,-4.1599,-4.1664,-4.1691,-4.1344,-4.1342,-4.134,-4.1339,0,0,-4.0784,-4.088,-4.0912,-4.0955,-4.1034,-4.1112,-4.1224,-4.1318,-4.1372,-4.144,-4.1534,-4.1665,-4.1626,-4.1678,-4.1675,-4.1753,-4.1911,-4.17,-4.1702,-4.1738,-4.2105,-4.2138,-4.2169,-4.1893,-4.1898,-4.1902,-4.2099,0,-4.0974,-4.1172,-4.1177,-4.1359,-4.1453,-4.1421,-4.1518,-4.1577,-4.16,-4.1682,-4.1706,-4.18,-4.1741,-4.1772,-4.1847,-4.1876,-4.1985,-4.1862,-4.198,-4.1984,-4.1965,-4.2203,-4.2238,-4.2422,-4.2125,-4.2129,-4.2132,0,-4.1223,-4.13,-4.1491,-4.1557,-4.1596,-4.1684,-4.1771,-4.185,-4.1915,-4.1926,-4.1985,-4.1972,-4.2085,-4.2001,-4.2158,-4.2074,-4.2122,-4.2144,-4.2151,-4.2163,-4.2068,-4.2222,-4.248,-4.2508,-4.2172,-4.2169,-4.2166,0,-4.1376,-4.1527,-4.1662,-4.17,-4.1779,-4.1842,-4.1878,-4.1938,-4.1994,-4.207,-4.2106,-4.2193,-4.2241,-4.2308,-4.2318,-4.2255,-4.2475,-4.2392,-4.2488,-4.2488,-4.2536,-4.2533,-4.2807,-4.2566,-4.2565,-4.2565,-4.2564,0,-4.1588,-4.1707,-4.1732,-4.1815,-4.1946,-4.195,-4.208,-4.2111,-4.2165,-4.2252,-4.2229,-4.2311,-4.2319,-4.2404,-4.2412,-4.2541,-4.2562,-4.2574,-4.2575,-4.2577,-4.2576,-4.2609,-4.2597,-4.2572,-4.2571,-4.2569,-4.2568,0,-4.1782,-4.1804,-4.1948,-4.2012,-4.2031,-4.2126,-4.218,-4.2258,-4.2279,-4.239,-4.2416,-4.2448,-4.2547,-4.2563,-4.2678,-4.2684,-4.2839,-4.2826,-4.2817,-4.2816,-4.2912,-4.2903,-4.3218,-4.3259,-4.299,-4.2992,-4.2994,0,-4.1917,-4.2008,-4.2082,-4.214,-4.2179,-4.2272,-4.233,-4.2337,-4.2398,-4.2479,-4.2548,-4.2645,-4.2722,-4.2881,-4.2914,-4.3002,-4.2992,-4.3096,-4.3005,-4.3004,-4.2994,-4.299,-4.2999,-4.3114,-4.3117,-4.3119,-4.3121,0,-4.2155,-4.2161,-4.2246,-4.2335,-4.2405,-4.2475,-4.2541,-4.259,-4.2605,-4.2675,-4.2776,-4.2836,-4.2955,-4.3051,-4.3138,-4.3174,-4.3151,-4.3149,-4.3176,-4.318,-4.3172,-4.3179,-4.2866,-4.3142,-4.314,-4.3139,-4.3137,-4.3137,-4.2324,-4.2404,-4.2469,-4.2564,-4.2615,-4.2678,-4.2755,-4.2786,-4.2871,-4.2969,-4.2967,-4.3079,-4.3141,-4.3257,-4.3298,-4.3385,-4.3351,-4.339,-4.34,-4.341,-4.342,-4.3157,-4.34,-4.34,-4.3399,-4.3399,-4.3398,0,-4.2561,-4.2602,-4.269,-4.2784,-4.2859,-4.2831,-4.2903,-4.2968,-4.3066,-4.3127,-4.3204,-4.3321,-4.3414,-4.3454,-4.3546,-4.3607,-4.3599,-4.3631,-4.3627,-4.3636,-4.3444,-4.3412,-4.3636,-4.3636,-4.3636,-4.3636,-4.3636,-4.3636,-4.2694,-4.2827,-4.2842,-4.3,-4.3039,-4.3149,-4.3192,-4.325,-4.3299,-4.343,-4.3508,-4.3534,-4.3587,-4.3682,-4.3766,-4.3775,-4.381,-4.3848,-4.3853,-4.3673,-4.3649,-4.3626,-4.3596,-4.3855,-4.3855,-4.4037,-4.4039,-4.404]}]]